Jaipur, India

11:40 AM IST on October 19, 2017 (GMT +0530)
Jaipur

Weather History for VIJP - September, 2013

Change the Weather History Date:

Saturday, September 21, 2013

  Actual Average Record
Temperature  
Mean Temperature 84 °F -  
Max Temperature 91 °F - - ()
Min Temperature 77 °F - - ()
Cooling Degree Days 19    
Growing Degree Days 34 (Base 50)    
Moisture  
Dew Point 73 °F    
Average Humidity 74    
Maximum Humidity 94    
Minimum Humidity 47    
Precipitation  
Precipitation 1.10 in - - ()
Sea Level Pressure  
Sea Level Pressure 29.64 in    
Wind  
Wind Speed 8 mph ()    
Max Wind Speed 13 mph    
Max Gust Speed -    
Visibility 2.3 miles    
Events Rain    
T = Trace of Precipitation, MM = Missing Value Source: Averaged Metar Reports

Daily Weather History Graph

Daily Weather History Graph

Search for Another Location

Airport or City:

Trip Planner

Search our weather history database for the weather conditions in past years. The results will help you decide how hot, cold, wet, or windy it might be!

Date:

Astronomy

Sep. 21, 2013 Rise Set
Actual Time 6:14 AM IST 6:24 PM IST
Civil Twilight 5:51 AM IST 6:47 PM IST
Nautical Twilight 5:24 AM IST 7:14 PM IST
Astronomical Twilight 4:57 AM IST 7:41 PM IST
Moon 7:34 PM IST (9/21) 7:50 AM IST (9/21)
Length of Visible Light 12h 56m
Length of Day
12h 09m
Waning Gibbous, 96% of the Moon is Illuminated
Sep 21
Waning Gibbous
Sep 27
Last Quarter
Oct 5
New
Oct 12
First Quarter
Oct 19
Full

Hourly Weather History & Observations

Time (IST) Temp. Heat Index Dew Point Humidity Pressure Visibility Wind Dir Wind Speed Gust Speed Precip Events Conditions
12:00 AM 78.8 °F - 73.4 °F 83% 29.68 in 2.2 mi East 5.8 mph - N/A   Haze
1:00 AM 78.8 °F - 71.6 °F 78% 29.65 in 2.2 mi ENE 5.8 mph - N/A   Haze
2:00 AM 78.8 °F - 71.6 °F 78% 29.65 in 2.2 mi ENE 8.1 mph - N/A   Haze
2:30 AM 80 °F - 71 °F 67% 29.58 in 1 mi ENE 8.1 mph - -   Haze
3:00 AM 78.8 °F - 71.6 °F 78% 29.65 in 2.2 mi ENE 8.1 mph - N/A   Haze
4:00 AM 78.8 °F - 69.8 °F 74% 29.65 in 2.2 mi ENE 9.2 mph - N/A   Haze
5:00 AM 78.8 °F - 69.8 °F 74% 29.65 in 2.2 mi ENE 8.1 mph - N/A   Haze
5:30 AM 78 °F - 71 °F 73% 29.58 in 2 mi NE 9.2 mph - -   Haze
6:00 AM 78.8 °F - 71.6 °F 78% 29.65 in 2.2 mi ENE 6.9 mph - N/A   Haze
7:00 AM 78.8 °F - 71.6 °F 78% 29.68 in 2.2 mi ENE 8.1 mph - N/A   Haze
8:00 AM 80.6 °F 85.4 °F 73.4 °F 79% 29.68 in 2.5 mi ENE 8.1 mph - N/A   Haze
8:30 AM 80.6 °F 85.4 °F 73.4 °F 79% 29.68 in 2.5 mi ENE 9.2 mph - N/A   Mostly Cloudy
10:00 AM 82.4 °F 88.2 °F 73.4 °F 74% 29.71 in 3.1 mi East 11.5 mph - N/A   Haze
10:30 AM 84.2 °F 92.3 °F 75.2 °F 74% 29.71 in 3.1 mi East 10.4 mph - N/A   Haze
11:00 AM 87.8 °F 97.6 °F 75.2 °F 66% 29.71 in 3.1 mi ESE 12.7 mph - N/A   Haze
11:30 AM 86 °F - 74 °F 60% 29.61 in 2 mi East 9.2 mph - -   Haze
12:00 PM 84.2 °F 90.9 °F 73.4 °F 70% 29.68 in 3.1 mi East 11.5 mph - N/A   Haze
1:00 PM 87.8 °F 95.6 °F 73.4 °F 62% 29.65 in 3.1 mi East 12.7 mph - N/A   Haze
1:30 PM 89.6 °F 98.2 °F 73.4 °F 59% 29.62 in 3.1 mi East 11.5 mph - N/A   Haze
2:00 PM 87.8 °F 95.6 °F 73.4 °F 62% 29.62 in 3.1 mi ENE 11.5 mph - N/A   Haze
2:30 PM 90 °F - 72 °F 47% 29.51 in 2 mi East 11.5 mph - -   Haze
3:00 PM 87.8 °F 95.6 °F 73.4 °F 62% 29.62 in 3.1 mi ENE 11.5 mph - N/A   Haze
4:00 PM 87.8 °F 95.6 °F 73.4 °F 62% 29.59 in 3.1 mi East 8.1 mph - N/A   Haze
5:00 PM 87.8 °F 95.6 °F 73.4 °F 62% 29.59 in 3.1 mi East 8.1 mph - N/A   Haze
5:30 PM 84 °F - 76 °F 72% 29.52 in 2 mi NE 9.2 mph - - Rain Light Drizzle
6:00 PM 77.0 °F - 75.2 °F 94% 29.62 in 1.2 mi ENE 10.4 mph - N/A Rain Light Rain
8:00 PM 78.8 °F - 75.2 °F 89% 29.65 in 1.2 mi Variable 5.8 mph - N/A Rain Light Rain
9:00 PM 77.0 °F - 75.2 °F 94% 29.65 in 1.2 mi NE 10.4 mph - N/A Rain Light Rain
10:00 PM 77.0 °F - 73.4 °F 89% 29.68 in 1.6 mi NE 6.9 mph - N/A   Mostly Cloudy
11:00 PM 77.0 °F - 75.2 °F 94% 29.65 in 1.6 mi ENE 6.9 mph - N/A   Mostly Cloudy
11:30 PM 77 °F - 74 °F 90% 29.60 in 1 mi ENE 9.2 mph - -   Mist